OK1FCB-1 Weather Reports


time (UTC)temp
F
wind
direction
speed
knots
gust
knots
rain 1hr
in
rain 24hr
in
rain mn
in
humidity
%
barometer
mb
20260504185353 63 0.0 0.0 0.00 0.00 0.00 49 1015.4
20260504185347 63 0.0 0.0 0.00 0.00 0.00 49 1015.4
20260504183849 63 0.0 0.0 0.00 0.00 0.00 47 1015.4
20260504182352 65 0.0 0.0 0.00 0.00 0.00 45 1015.4
20260504175405 69 0.0 0.0 0.00 0.00 0.00 41 1015.2
20260504175359 69 0.0 0.0 0.00 0.00 0.00 41 1015.2
20260504170918 78 0.0 0.0 0.00 0.00 0.00 33 1015.2
20260504170912 78 0.0 0.0 0.00 0.00 0.00 33 1015.2
20260504150940 83 0.0 0.0 0.00 0.00 0.00 29 1015.6
20260504140954 91 0.0 0.0 0.00 0.00 0.00 26 1016.0
20260504081034 75 0.0 0.0 0.00 0.00 0.00 33 1018.3
20260504081028 75 0.0 0.0 0.00 0.00 0.00 33 1018.3
20260504044047 55 0.0 0.0 0.00 0.00 0.00 55 1018.1
20260504042547 50 0.0 0.0 0.00 0.00 0.00 57 1018.1
20260504041054 47 0.0 0.0 0.00 0.00 0.00 57 1018.0
20260504035555 47 0.0 0.0 0.00 0.00 0.00 58 1018.1
20260504035549 47 0.0 0.0 0.00 0.00 0.00 58 1018.1
20260504032559 46 0.0 0.0 0.00 0.00 0.00 57 1018.1
20260504032553 46 0.0 0.0 0.00 0.00 0.00 57 1018.1
20260504025604 48 0.0 0.0 0.00 0.00 0.00 55 1017.9
20260504024107 48 0.0 0.0 0.00 0.00 0.00 55 1017.7
20260504024101 48 0.0 0.0 0.00 0.00 0.00 55 1017.7
20260504021112 48 0.0 0.0 0.00 0.00 0.00 55 1017.6
20260504021106 48 0.0 0.0 0.00 0.00 0.00 55 1017.6
20260504015614 48 0.0 0.0 0.00 0.00 0.00 55 1017.7
20260504015608 48 0.0 0.0 0.00 0.00 0.00 55 1017.7
20260504014110 48 0.0 0.0 0.00 0.00 0.00 55 1017.8
20260504012619 49 0.0 0.0 0.00 0.00 0.00 54 1017.8
20260504012613 49 0.0 0.0 0.00 0.00 0.00 54 1017.8
20260504002628 50 0.0 0.0 0.00 0.00 0.00 53 1017.6
20260504002622 50 0.0 0.0 0.00 0.00 0.00 53 1017.6
20260503232637 53 0.0 0.0 0.00 0.00 0.00 50 1017.8
20260503232631 53 0.0 0.0 0.00 0.00 0.00 50 1017.8
20260503225637 55 0.0 0.0 0.00 0.00 0.00 48 1017.8
20260503215652 56 0.0 0.0 0.00 0.00 0.00 47 1017.9
20260503215646 56 0.0 0.0 0.00 0.00 0.00 47 1017.9
20260503212656 56 0.0 0.0 0.00 0.00 0.00 47 1018.0
20260503212650 56 0.0 0.0 0.00 0.00 0.00 47 1018.0
20260503211158 56 0.0 0.0 0.00 0.00 0.00 46 1018.0
20260503211153 56 0.0 0.0 0.00 0.00 0.00 46 1018.0
20260503205655 57 0.0 0.0 0.00 0.00 0.00 44 1017.9
20260503204203 57 0.0 0.0 0.00 0.00 0.00 44 1017.9
20260503204157 57 0.0 0.0 0.00 0.00 0.00 44 1017.9
20260503202704 57 0.0 0.0 0.00 0.00 0.00 44 1018.0
20260503202658 57 0.0 0.0 0.00 0.00 0.00 44 1018.0
20260503201207 57 0.0 0.0 0.00 0.00 0.00 44 1018.1
20260503201201 57 0.0 0.0 0.00 0.00 0.00 44 1018.1
20260503195710 58 0.0 0.0 0.00 0.00 0.00 42 1018.1
20260503195704 58 0.0 0.0 0.00 0.00 0.00 42 1018.1
20260503194212 59 0.0 0.0 0.00 0.00 0.00 41 1018.2
20260503194206 59 0.0 0.0 0.00 0.00 0.00 41 1018.2
20260503191218 61 0.0 0.0 0.00 0.00 0.00 39 1017.8
20260503191212 61 0.0 0.0 0.00 0.00 0.00 39 1017.8